Year,Month,Day,Hour,Minute,Value (Times are PST for barometer in hPa)
2016,03,06,00,00,984.05
2016,03,06,00,01,984.11
2016,03,06,00,02,984.08
2016,03,06,00,03,984.12
2016,03,06,00,04,984.15
2016,03,06,00,05,984.19
2016,03,06,00,06,984.22
2016,03,06,00,07,984.19
2016,03,06,00,08,984.19
2016,03,06,00,09,984.12
2016,03,06,00,10,984.08
2016,03,06,00,11,984.12
2016,03,06,00,12,984.15
2016,03,06,00,13,984.22
2016,03,06,00,14,984.25
2016,03,06,00,15,984.19
2016,03,06,00,16,984.25
2016,03,06,00,17,984.29
2016,03,06,00,18,984.36
2016,03,06,00,19,984.39
2016,03,06,00,20,984.42
2016,03,06,00,21,984.46
2016,03,06,00,22,984.53
2016,03,06,00,23,984.53
2016,03,06,00,24,984.49
2016,03,06,00,25,984.49
2016,03,06,00,26,984.56
2016,03,06,00,27,984.53
2016,03,06,00,28,984.53
2016,03,06,00,29,984.49
2016,03,06,00,30,984.53
2016,03,06,00,31,984.49
2016,03,06,00,32,984.42
2016,03,06,00,33,984.42
2016,03,06,00,34,984.46
2016,03,06,00,35,984.42
2016,03,06,00,36,984.46
2016,03,06,00,37,984.49
2016,03,06,00,38,984.53
2016,03,06,00,39,984.53
2016,03,06,00,40,984.53
2016,03,06,00,41,984.46
2016,03,06,00,42,984.46
2016,03,06,00,43,984.42
2016,03,06,00,44,984.39
2016,03,06,00,45,984.39
2016,03,06,00,46,984.39
2016,03,06,00,47,984.42
2016,03,06,00,48,984.42
2016,03,06,00,49,984.42
2016,03,06,00,50,984.42
2016,03,06,00,51,984.39
2016,03,06,00,52,984.32
2016,03,06,00,53,984.36
2016,03,06,00,54,984.39
2016,03,06,00,55,984.39
2016,03,06,00,56,984.39
2016,03,06,00,57,984.42
2016,03,06,00,58,984.36
2016,03,06,00,59,984.36
2016,03,06,01,00,984.39
2016,03,06,01,01,984.32
2016,03,06,01,02,984.32
2016,03,06,01,03,984.29
2016,03,06,01,04,984.25
2016,03,06,01,05,984.22
2016,03,06,01,06,984.15
2016,03,06,01,07,984.19
2016,03,06,01,08,984.22
2016,03,06,01,09,984.32
2016,03,06,01,10,984.32
2016,03,06,01,11,984.36
2016,03,06,01,12,984.39
2016,03,06,01,13,984.47
2016,03,06,01,14,984.59
2016,03,06,01,15,984.76
2016,03,06,01,16,984.97
2016,03,06,01,17,985.11
2016,03,06,01,18,985.34
2016,03,06,01,19,985.54
2016,03,06,01,20,985.78
2016,03,06,01,21,985.74
2016,03,06,01,22,985.74
2016,03,06,01,23,985.95
2016,03,06,01,24,985.95
2016,03,06,01,25,985.91
2016,03,06,01,26,985.91
2016,03,06,01,27,986.05
2016,03,06,01,28,985.98
2016,03,06,01,29,986.05
2016,03,06,01,30,986.08
2016,03,06,01,31,985.98
2016,03,06,01,32,986.03
2016,03,06,01,33,986.12
2016,03,06,01,34,986.22
2016,03,06,01,35,986.29
2016,03,06,01,36,986.40
2016,03,06,01,37,986.49
2016,03,06,01,38,986.56
2016,03,06,01,39,986.46
2016,03,06,01,40,986.59
2016,03,06,01,41,986.62
2016,03,06,01,42,986.66
2016,03,06,01,43,986.69
2016,03,06,01,44,986.86
2016,03,06,01,45,986.96
2016,03,06,01,46,986.90
2016,03,06,01,47,986.93
2016,03,06,01,48,986.97
2016,03,06,01,49,987.07
2016,03,06,01,50,987.17
2016,03,06,01,51,987.20
2016,03,06,01,52,987.23
2016,03,06,01,53,987.27
2016,03,06,01,54,987.40
2016,03,06,01,55,987.44
2016,03,06,01,56,987.47
2016,03,06,01,57,987.47
2016,03,06,01,58,987.57
2016,03,06,01,59,987.61
2016,03,06,02,00,987.61
2016,03,06,02,01,987.64
2016,03,06,02,02,987.67
2016,03,06,02,03,987.67
2016,03,06,02,04,987.57
2016,03,06,02,05,987.64
2016,03,06,02,06,987.61
2016,03,06,02,07,987.47
2016,03,06,02,08,987.54
2016,03,06,02,09,987.57
2016,03,06,02,10,987.61
2016,03,06,02,11,987.71
2016,03,06,02,12,987.65
2016,03,06,02,13,987.78
2016,03,06,02,14,987.74
2016,03,06,02,15,987.81
2016,03,06,02,16,987.84
2016,03,06,02,17,987.88
2016,03,06,02,18,987.84
2016,03,06,02,19,987.84
2016,03,06,02,20,987.84
2016,03,06,02,21,987.81
2016,03,06,02,22,987.81
2016,03,06,02,23,987.78
2016,03,06,02,24,987.84
2016,03,06,02,25,987.84
2016,03,06,02,26,987.89
2016,03,06,02,27,987.98
2016,03,06,02,28,987.98
2016,03,06,02,29,987.98
2016,03,06,02,30,987.95
2016,03,06,02,31,987.95
2016,03,06,02,32,987.88
2016,03,06,02,33,987.81
2016,03,06,02,34,987.73
2016,03,06,02,35,987.64
2016,03,06,02,36,987.64
2016,03,06,02,37,987.61
2016,03,06,02,38,987.57
2016,03,06,02,39,987.51
2016,03,06,02,40,987.44
2016,03,06,02,41,987.44
2016,03,06,02,42,987.37
2016,03,06,02,43,987.34
2016,03,06,02,44,987.27
2016,03,06,02,45,987.30
2016,03,06,02,46,987.37
2016,03,06,02,47,987.37
2016,03,06,02,48,987.34
2016,03,06,02,49,987.34
2016,03,06,02,50,987.30
2016,03,06,02,51,987.37
2016,03,06,02,52,987.34
2016,03,06,02,53,987.27
2016,03,06,02,54,987.27
2016,03,06,02,55,987.34
2016,03,06,02,56,987.30
2016,03,06,02,57,987.30
2016,03,06,02,58,987.30
2016,03,06,02,59,987.31
2016,03,06,03,00,987.44
2016,03,06,03,01,987.51
2016,03,06,03,02,987.54
2016,03,06,03,03,987.51
2016,03,06,03,04,987.61
2016,03,06,03,05,987.57
2016,03,06,03,06,987.57
2016,03,06,03,07,987.57
2016,03,06,03,08,987.54
2016,03,06,03,09,987.54
2016,03,06,03,10,987.64
2016,03,06,03,11,987.54
2016,03,06,03,12,987.54
2016,03,06,03,13,987.61
2016,03,06,03,14,987.54
2016,03,06,03,15,987.57
2016,03,06,03,16,987.57
2016,03,06,03,17,987.71
2016,03,06,03,18,987.78
2016,03,06,03,19,987.78
2016,03,06,03,20,987.78
2016,03,06,03,21,987.74
2016,03,06,03,22,987.64
2016,03,06,03,23,987.71
2016,03,06,03,24,987.67
2016,03,06,03,25,987.71
2016,03,06,03,26,987.71
2016,03,06,03,27,987.78
2016,03,06,03,28,987.82
2016,03,06,03,29,987.91
2016,03,06,03,30,987.95
2016,03,06,03,31,987.95
2016,03,06,03,32,987.98
2016,03,06,03,33,987.98
2016,03,06,03,34,988.05
2016,03,06,03,35,988.11
2016,03,06,03,36,988.15
2016,03,06,03,37,988.15
2016,03,06,03,38,988.15
2016,03,06,03,39,988.11
2016,03,06,03,40,988.11
2016,03,06,03,41,988.22
2016,03,06,03,42,988.15
2016,03,06,03,43,988.22
2016,03,06,03,44,988.22
2016,03,06,03,45,988.18
2016,03,06,03,46,988.18
2016,03,06,03,47,988.18
2016,03,06,03,48,988.22
2016,03,06,03,49,988.22
2016,03,06,03,50,988.28
2016,03,06,03,51,988.25
2016,03,06,03,52,988.25
2016,03,06,03,53,988.22
2016,03,06,03,54,988.15
2016,03,06,03,55,988.15
2016,03,06,03,56,988.25
2016,03,06,03,57,988.28
2016,03,06,03,58,988.28
2016,03,06,03,59,988.25
2016,03,06,04,00,988.25
2016,03,06,04,01,988.28
2016,03,06,04,02,988.32
2016,03,06,04,03,988.28
2016,03,06,04,04,988.39
2016,03,06,04,05,988.45
2016,03,06,04,06,988.42
2016,03,06,04,07,988.28
2016,03,06,04,08,988.42
2016,03,06,04,09,988.39
2016,03,06,04,10,988.45
2016,03,06,04,11,988.46
2016,03,06,04,12,988.55
2016,03,06,04,13,988.55
2016,03,06,04,14,988.62
2016,03,06,04,15,988.72
2016,03,06,04,16,988.72
2016,03,06,04,17,988.69
2016,03,06,04,18,988.76
2016,03,06,04,19,988.76
2016,03,06,04,20,988.89
2016,03,06,04,21,988.89
2016,03,06,04,22,988.83
2016,03,06,04,23,988.86
2016,03,06,04,24,988.86
2016,03,06,04,25,988.86
2016,03,06,04,26,988.86
2016,03,06,04,27,988.86
2016,03,06,04,28,988.93
2016,03,06,04,29,988.83
2016,03,06,04,30,988.83
2016,03,06,04,31,988.86
2016,03,06,04,32,988.86
2016,03,06,04,33,989.00
2016,03,06,04,34,989.06
2016,03,06,04,35,989.23
2016,03,06,04,36,989.30
2016,03,06,04,37,989.23
2016,03,06,04,38,989.23
2016,03,06,04,39,989.16
2016,03,06,04,40,989.23
2016,03,06,04,41,989.30
2016,03,06,04,42,989.37
2016,03,06,04,43,989.44
2016,03,06,04,44,989.37
2016,03,06,04,45,989.45
2016,03,06,04,46,989.54
2016,03,06,04,47,989.57
2016,03,06,04,48,989.50
2016,03,06,04,49,989.44
2016,03,06,04,50,989.50
2016,03,06,04,51,989.54
2016,03,06,04,52,989.50
2016,03,06,04,53,989.50
2016,03,06,04,54,989.60
2016,03,06,04,55,989.64
2016,03,06,04,56,989.74
2016,03,06,04,57,989.81
2016,03,06,04,58,989.84
2016,03,06,04,59,989.94
2016,03,06,05,00,989.98
2016,03,06,05,01,990.04
2016,03,06,05,02,990.18
2016,03,06,05,03,990.25
2016,03,06,05,04,990.28
2016,03,06,05,05,990.32
2016,03,06,05,06,990.35
2016,03,06,05,07,990.35
2016,03,06,05,08,990.52
2016,03,06,05,09,990.52
2016,03,06,05,10,990.52
2016,03,06,05,11,990.55
2016,03,06,05,12,990.65
2016,03,06,05,13,990.79
2016,03,06,05,14,990.79
2016,03,06,05,15,990.86
2016,03,06,05,16,990.86
2016,03,06,05,17,990.93
2016,03,06,05,18,990.93
2016,03,06,05,19,990.96
2016,03,06,05,20,990.96
2016,03,06,05,21,990.99
2016,03,06,05,22,991.03
2016,03,06,05,23,991.03
2016,03,06,05,24,991.06
2016,03,06,05,25,990.99
2016,03,06,05,26,991.09
2016,03,06,05,27,991.20
2016,03,06,05,28,991.16
2016,03,06,05,29,991.20
2016,03,06,05,30,991.26
2016,03,06,05,31,991.30
2016,03,06,05,32,991.33
2016,03,06,05,33,991.37
2016,03,06,05,34,991.33
2016,03,06,05,35,991.37
2016,03,06,05,36,991.43
2016,03,06,05,37,991.50
2016,03,06,05,38,991.53
2016,03,06,05,39,991.65
2016,03,06,05,40,991.74
2016,03,06,05,41,991.84
2016,03,06,05,42,991.91
2016,03,06,05,43,992.01
2016,03,06,05,44,992.01
2016,03,06,05,45,992.08
2016,03,06,05,46,992.08
2016,03,06,05,47,992.01
2016,03,06,05,48,992.08
2016,03,06,05,49,992.14
2016,03,06,05,50,992.11
2016,03,06,05,51,992.14
2016,03,06,05,52,992.08
2016,03,06,05,53,992.18
2016,03,06,05,54,992.18
2016,03,06,05,55,992.14
2016,03,06,05,56,992.04
2016,03,06,05,57,992.01
2016,03,06,05,58,992.01
2016,03,06,05,59,992.01
2016,03,06,06,00,992.08
2016,03,06,06,01,992.04
2016,03,06,06,02,992.08
2016,03,06,06,03,992.11
2016,03,06,06,04,992.14
2016,03,06,06,05,992.18
2016,03,06,06,06,992.21
2016,03,06,06,07,992.11
2016,03,06,06,08,992.21
2016,03,06,06,09,992.25
2016,03,06,06,10,992.25
2016,03,06,06,11,992.28
2016,03,06,06,12,992.21
2016,03,06,06,13,992.35
2016,03,06,06,14,992.35
2016,03,06,06,15,992.35
2016,03,06,06,16,992.35
2016,03,06,06,17,992.38
2016,03,06,06,18,992.35
2016,03,06,06,19,992.38
2016,03,06,06,20,992.42
2016,03,06,06,21,992.35
2016,03,06,06,22,992.31
2016,03,06,06,23,992.28
2016,03,06,06,24,992.31
2016,03,06,06,25,992.31
2016,03,06,06,26,992.31
2016,03,06,06,27,992.28
2016,03,06,06,28,992.31
2016,03,06,06,29,992.38
2016,03,06,06,30,992.42
2016,03,06,06,31,992.42
2016,03,06,06,32,992.31
2016,03,06,06,33,992.28
2016,03,06,06,34,992.28
2016,03,06,06,35,992.28
2016,03,06,06,36,992.28
2016,03,06,06,37,992.28
2016,03,06,06,38,992.28
2016,03,06,06,39,992.35
2016,03,06,06,40,992.38
2016,03,06,06,41,992.38
2016,03,06,06,42,992.42
2016,03,06,06,43,992.38
2016,03,06,06,44,992.35
2016,03,06,06,45,992.42
2016,03,06,06,46,992.38
2016,03,06,06,47,992.38
2016,03,06,06,48,992.45
2016,03,06,06,49,992.45
2016,03,06,06,50,992.45
2016,03,06,06,51,992.48
2016,03,06,06,52,992.48
2016,03,06,06,53,992.52
2016,03,06,06,54,992.59
2016,03,06,06,55,992.69
2016,03,06,06,56,992.65
2016,03,06,06,57,992.69
2016,03,06,06,58,992.75
2016,03,06,06,59,992.75
2016,03,06,07,00,992.75
2016,03,06,07,01,992.75
2016,03,06,07,02,992.79
2016,03,06,07,03,992.82
2016,03,06,07,04,992.86
2016,03,06,07,05,992.92
2016,03,06,07,06,992.96
2016,03,06,07,07,993.03
2016,03,06,07,08,993.09
2016,03,06,07,09,993.13
2016,03,06,07,10,993.09
2016,03,06,07,11,993.16
2016,03,06,07,12,993.06
2016,03,06,07,13,993.13
2016,03,06,07,14,993.16
2016,03,06,07,15,993.19
2016,03,06,07,16,993.26
2016,03,06,07,17,993.23
2016,03,06,07,18,993.26
2016,03,06,07,19,993.26
2016,03,06,07,20,993.23
2016,03,06,07,21,993.26
2016,03,06,07,22,993.33
2016,03,06,07,23,993.36
2016,03,06,07,24,993.40
2016,03,06,07,25,993.43
2016,03,06,07,26,993.50
2016,03,06,07,27,993.53
2016,03,06,07,28,993.60
2016,03,06,07,29,993.74
2016,03,06,07,30,993.77
2016,03,06,07,31,993.80
2016,03,06,07,32,993.77
2016,03,06,07,33,993.80
2016,03,06,07,34,993.80
2016,03,06,07,35,993.84
2016,03,06,07,36,993.87
2016,03,06,07,37,993.84
2016,03,06,07,38,993.84
2016,03,06,07,39,993.80
2016,03,06,07,40,993.74
2016,03,06,07,41,993.77
2016,03,06,07,42,993.77
2016,03,06,07,43,993.80
2016,03,06,07,44,993.80
2016,03,06,07,45,993.80
2016,03,06,07,46,993.77
2016,03,06,07,47,993.84
2016,03,06,07,48,993.80
2016,03,06,07,49,993.77
2016,03,06,07,50,993.74
2016,03,06,07,51,993.70
2016,03,06,07,52,993.70
2016,03,06,07,53,993.67
2016,03,06,07,54,993.70
2016,03,06,07,55,993.60
2016,03,06,07,56,993.60
2016,03,06,07,57,993.60
2016,03,06,07,58,993.60
2016,03,06,07,59,993.53
2016,03,06,08,00,993.53
2016,03,06,08,01,993.50
2016,03,06,08,02,993.53
2016,03,06,08,03,993.57
2016,03,06,08,04,993.60
2016,03,06,08,05,993.63
2016,03,06,08,06,993.67
2016,03,06,08,07,993.67
2016,03,06,08,08,993.70
2016,03,06,08,09,993.74
2016,03,06,08,10,993.77
2016,03,06,08,11,993.84
2016,03,06,08,12,993.84
2016,03,06,08,13,993.87
2016,03,06,08,14,993.91
2016,03,06,08,15,993.94
2016,03,06,08,16,993.94
2016,03,06,08,17,994.01
2016,03,06,08,18,993.94
2016,03,06,08,19,993.97
2016,03,06,08,20,994.04
2016,03,06,08,21,994.04
2016,03,06,08,22,994.07
2016,03,06,08,23,994.01
2016,03,06,08,24,994.01
2016,03,06,08,25,994.04
2016,03,06,08,26,994.07
2016,03,06,08,27,994.12
2016,03,06,08,28,994.24
2016,03,06,08,29,994.35
2016,03,06,08,30,994.28
2016,03,06,08,31,994.31
2016,03,06,08,32,994.38
2016,03,06,08,33,994.41
2016,03,06,08,34,994.45
2016,03,06,08,35,994.45
2016,03,06,08,36,994.45
2016,03,06,08,37,994.41
2016,03,06,08,38,994.41
2016,03,06,08,39,994.41
2016,03,06,08,40,994.38
2016,03,06,08,41,994.41
2016,03,06,08,42,994.45
2016,03,06,08,43,994.38
2016,03,06,08,44,994.41
2016,03,06,08,45,994.45
2016,03,06,08,46,994.38
2016,03,06,08,47,994.35
2016,03,06,08,48,994.35
2016,03,06,08,49,994.38
2016,03,06,08,50,994.45
2016,03,06,08,51,994.48
2016,03,06,08,52,994.58
2016,03,06,08,53,994.55
2016,03,06,08,54,994.62
2016,03,06,08,55,994.58
2016,03,06,08,56,994.62
2016,03,06,08,57,994.58
2016,03,06,08,58,994.65
2016,03,06,08,59,994.62
2016,03,06,09,00,994.68
2016,03,06,09,01,994.68
2016,03,06,09,02,994.72
2016,03,06,09,03,994.68
2016,03,06,09,04,994.65
2016,03,06,09,05,994.68
2016,03,06,09,06,994.72
2016,03,06,09,07,994.72
2016,03,06,09,08,994.68
2016,03,06,09,09,994.68
2016,03,06,09,10,994.72
2016,03,06,09,11,994.75
2016,03,06,09,12,994.79
2016,03,06,09,13,994.79
2016,03,06,09,14,994.89
2016,03,06,09,15,994.85
2016,03,06,09,16,994.85
2016,03,06,09,17,994.85
2016,03,06,09,18,994.89
2016,03,06,09,19,994.92
2016,03,06,09,20,994.89
2016,03,06,09,21,994.89
2016,03,06,09,22,994.96
2016,03,06,09,23,994.96
2016,03,06,09,24,994.96
2016,03,06,09,25,994.92
2016,03,06,09,26,994.92
2016,03,06,09,27,994.89
2016,03,06,09,28,994.92
2016,03,06,09,29,994.89
2016,03,06,09,30,994.89
2016,03,06,09,31,994.92
2016,03,06,09,32,995.02
2016,03,06,09,33,995.02
2016,03,06,09,34,995.06
2016,03,06,09,35,995.02
2016,03,06,09,36,994.99
2016,03,06,09,37,995.02
2016,03,06,09,38,995.09
2016,03,06,09,39,995.06
2016,03,06,09,40,995.02
2016,03,06,09,41,995.09
2016,03,06,09,42,995.02
2016,03,06,09,43,994.99
2016,03,06,09,44,994.99
2016,03,06,09,45,994.99
2016,03,06,09,46,994.96
2016,03,06,09,47,994.96
2016,03,06,09,48,994.99
2016,03,06,09,49,994.99
2016,03,06,09,50,995.02
2016,03,06,09,51,994.99
2016,03,06,09,52,994.96
2016,03,06,09,53,994.92
2016,03,06,09,54,994.99
2016,03,06,09,55,995.06
2016,03,06,09,56,995.06
2016,03,06,09,57,995.06
2016,03,06,09,58,995.02
2016,03,06,09,59,994.99
2016,03,06,10,00,995.09
2016,03,06,10,01,995.12
2016,03,06,10,02,995.09
2016,03,06,10,03,995.16
2016,03,06,10,04,995.12
2016,03,06,10,05,995.12
2016,03,06,10,06,995.16
2016,03,06,10,07,995.19
2016,03,06,10,08,995.26
2016,03,06,10,09,995.26
2016,03,06,10,10,995.29
2016,03,06,10,11,995.33
2016,03,06,10,12,995.29
2016,03,06,10,13,995.26
2016,03,06,10,14,995.23
2016,03,06,10,15,995.23
2016,03,06,10,16,995.23
2016,03,06,10,17,995.26
2016,03,06,10,18,995.26
2016,03,06,10,19,995.26
2016,03,06,10,20,995.23
2016,03,06,10,21,995.19
2016,03,06,10,22,995.19
2016,03,06,10,23,995.26
2016,03,06,10,24,995.26
2016,03,06,10,25,995.29
2016,03,06,10,26,995.26
2016,03,06,10,27,995.26
2016,03,06,10,28,995.26
2016,03,06,10,29,995.26
2016,03,06,10,30,995.29
2016,03,06,10,31,995.33
2016,03,06,10,32,995.36
2016,03,06,10,33,995.33
2016,03,06,10,34,995.29
2016,03,06,10,35,995.36
2016,03,06,10,36,995.40
2016,03,06,10,37,995.40
2016,03,06,10,38,995.40
2016,03,06,10,39,995.40
2016,03,06,10,40,995.43
2016,03,06,10,41,995.43
2016,03,06,10,42,995.43
2016,03,06,10,43,995.43
2016,03,06,10,44,995.36
2016,03,06,10,45,995.33
2016,03,06,10,46,995.33
2016,03,06,10,47,995.36
2016,03,06,10,48,995.43
2016,03,06,10,49,995.36
2016,03,06,10,50,995.40
2016,03,06,10,51,995.36
2016,03,06,10,52,995.40
2016,03,06,10,53,995.43
2016,03,06,10,54,995.50
2016,03,06,10,55,995.56
2016,03,06,10,56,995.60
2016,03,06,10,57,995.56
2016,03,06,10,58,995.63
2016,03,06,10,59,995.67
2016,03,06,11,00,995.63
2016,03,06,11,01,995.67
2016,03,06,11,02,995.70
2016,03,06,11,03,995.77
2016,03,06,11,04,995.77
2016,03,06,11,05,995.77
2016,03,06,11,06,995.73
2016,03,06,11,07,995.77
2016,03,06,11,08,995.80
2016,03,06,11,09,995.84
2016,03,06,11,10,995.94
2016,03,06,11,11,995.97
2016,03,06,11,12,996.02
2016,03,06,11,13,996.11
2016,03,06,11,14,996.14
2016,03,06,11,15,996.24
2016,03,06,11,16,996.24
2016,03,06,11,17,996.28
2016,03,06,11,18,996.31
2016,03,06,11,19,996.31
2016,03,06,11,20,996.34
2016,03,06,11,21,996.34
2016,03,06,11,22,996.38
2016,03,06,11,23,996.41
2016,03,06,11,24,996.41
2016,03,06,11,25,996.48
2016,03,06,11,26,996.38
2016,03,06,11,27,996.41
2016,03,06,11,28,996.45
2016,03,06,11,29,996.45
2016,03,06,11,30,996.51
2016,03,06,11,31,996.51
2016,03,06,11,32,996.38
2016,03,06,11,33,996.34
2016,03,06,11,34,996.38
2016,03,06,11,35,996.41
2016,03,06,11,36,996.38
2016,03,06,11,37,996.45
2016,03,06,11,38,996.41
2016,03,06,11,39,996.31
2016,03,06,11,40,996.31
2016,03,06,11,41,996.34
2016,03,06,11,42,996.34
2016,03,06,11,43,996.41
2016,03,06,11,44,996.41
2016,03,06,11,45,996.48
2016,03,06,11,46,996.45
2016,03,06,11,47,996.48
2016,03,06,11,48,996.48
2016,03,06,11,49,996.55
2016,03,06,11,50,996.55
2016,03,06,11,51,996.55
2016,03,06,11,52,996.65
2016,03,06,11,53,996.68
2016,03,06,11,54,996.75
2016,03,06,11,55,996.78
2016,03,06,11,56,996.82
2016,03,06,11,57,996.78
2016,03,06,11,58,996.82
2016,03,06,11,59,996.85
2016,03,06,12,00,996.85
2016,03,06,12,01,996.85
2016,03,06,12,02,996.72
2016,03,06,12,03,996.68
2016,03,06,12,04,996.72
2016,03,06,12,05,996.78
2016,03,06,12,06,996.82
2016,03,06,12,07,996.85
2016,03,06,12,08,996.89
2016,03,06,12,09,996.89
2016,03,06,12,10,996.89
2016,03,06,12,11,996.92
2016,03,06,12,12,996.95
2016,03,06,12,13,996.92
2016,03,06,12,14,996.99
2016,03,06,12,15,997.05
2016,03,06,12,16,997.05
2016,03,06,12,17,997.02
2016,03,06,12,18,996.99
2016,03,06,12,19,997.02
2016,03,06,12,20,997.05
2016,03,06,12,21,997.09
2016,03,06,12,22,997.05
2016,03,06,12,23,997.02
2016,03,06,12,24,997.05
2016,03,06,12,25,997.09
2016,03,06,12,26,997.05
2016,03,06,12,27,997.00
2016,03,06,12,28,997.12
2016,03,06,12,29,997.12
2016,03,06,12,30,997.19
2016,03,06,12,31,997.19
2016,03,06,12,32,997.22
2016,03,06,12,33,997.22
2016,03,06,12,34,997.29
2016,03,06,12,35,997.26
2016,03,06,12,36,997.33
2016,03,06,12,37,997.33
2016,03,06,12,38,997.36
2016,03,06,12,39,997.39
2016,03,06,12,40,997.46
2016,03,06,12,41,997.46
2016,03,06,12,42,997.43
2016,03,06,12,43,997.43
2016,03,06,12,44,997.50
2016,03,06,12,45,997.50
2016,03,06,12,46,997.53
2016,03,06,12,47,997.50
2016,03,06,12,48,997.46
2016,03,06,12,49,997.46
2016,03,06,12,50,997.46
2016,03,06,12,51,997.46
2016,03,06,12,52,997.43
2016,03,06,12,53,997.39
2016,03,06,12,54,997.39
2016,03,06,12,55,997.36
2016,03,06,12,56,997.33
2016,03,06,12,57,997.36
2016,03,06,12,58,997.29
2016,03,06,12,59,997.22
2016,03,06,13,00,997.19
2016,03,06,13,01,997.16
2016,03,06,13,02,997.19
2016,03,06,13,03,997.19
2016,03,06,13,04,997.19
2016,03,06,13,05,997.12
2016,03,06,13,06,997.16
2016,03,06,13,07,997.16
2016,03,06,13,08,997.16
2016,03,06,13,09,997.16
2016,03,06,13,10,997.12
2016,03,06,13,11,997.16
2016,03,06,13,12,997.16
2016,03,06,13,13,997.22
2016,03,06,13,14,997.26
2016,03,06,13,15,997.29
2016,03,06,13,16,997.26
2016,03,06,13,17,997.26
2016,03,06,13,18,997.29
2016,03,06,13,19,997.33
2016,03,06,13,20,997.26
2016,03,06,13,21,997.33
2016,03,06,13,22,997.26
2016,03,06,13,23,997.26
2016,03,06,13,24,997.19
2016,03,06,13,25,997.12
2016,03,06,13,26,997.16
2016,03,06,13,27,997.16
2016,03,06,13,28,997.16
2016,03,06,13,29,997.22
2016,03,06,13,30,997.19
2016,03,06,13,31,997.16
2016,03,06,13,32,997.16
2016,03,06,13,33,997.19
2016,03,06,13,34,997.16
2016,03,06,13,35,997.19
2016,03,06,13,36,997.19
2016,03,06,13,37,997.26
2016,03,06,13,38,997.26
2016,03,06,13,39,997.33
2016,03,06,13,40,997.33
2016,03,06,13,41,997.29
2016,03,06,13,42,997.33
2016,03,06,13,43,997.36
2016,03,06,13,44,997.36
2016,03,06,13,45,997.36
2016,03,06,13,46,997.39
2016,03,06,13,47,997.43
2016,03,06,13,48,997.39
2016,03,06,13,49,997.43
2016,03,06,13,50,997.43
2016,03,06,13,51,997.46
2016,03,06,13,52,997.43
2016,03,06,13,53,997.43
2016,03,06,13,54,997.36
2016,03,06,13,55,997.36
2016,03,06,13,56,997.36
2016,03,06,13,57,997.36
2016,03,06,13,58,997.39
2016,03,06,13,59,997.36
2016,03,06,14,00,997.33
2016,03,06,14,01,997.43
2016,03,06,14,02,997.36
2016,03,06,14,03,997.46
2016,03,06,14,04,997.46
2016,03,06,14,05,997.46
2016,03,06,14,06,997.46
2016,03,06,14,07,997.46
2016,03,06,14,08,997.46
2016,03,06,14,09,997.50
2016,03,06,14,10,997.53
2016,03,06,14,11,997.56
2016,03,06,14,12,997.63
2016,03,06,14,13,997.66
2016,03,06,14,14,997.66
2016,03,06,14,15,997.70
2016,03,06,14,16,997.73
2016,03,06,14,17,997.73
2016,03,06,14,18,997.73
2016,03,06,14,19,997.77
2016,03,06,14,20,997.80
2016,03,06,14,21,997.83
2016,03,06,14,22,997.87
2016,03,06,14,23,997.87
2016,03,06,14,24,997.87
2016,03,06,14,25,997.94
2016,03,06,14,26,997.97
2016,03,06,14,27,997.97
2016,03,06,14,28,997.97
2016,03,06,14,29,998.00
2016,03,06,14,30,997.94
2016,03,06,14,31,998.04
2016,03,06,14,32,998.00
2016,03,06,14,33,998.10
2016,03,06,14,34,998.07
2016,03,06,14,35,998.14
2016,03,06,14,36,998.14
2016,03,06,14,37,998.10
2016,03,06,14,38,998.14
2016,03,06,14,39,998.10
2016,03,06,14,40,998.10
2016,03,06,14,41,998.14
2016,03,06,14,42,998.10
2016,03,06,14,43,998.10
2016,03,06,14,44,998.10
2016,03,06,14,45,998.07
2016,03,06,14,46,998.00
2016,03,06,14,47,998.04
2016,03,06,14,48,997.97
2016,03,06,14,49,997.97
2016,03,06,14,50,997.97
2016,03,06,14,51,997.94
2016,03,06,14,52,997.90
2016,03,06,14,53,997.94
2016,03,06,14,54,997.97
2016,03,06,14,55,997.97
2016,03,06,14,56,998.00
2016,03,06,14,57,998.04
2016,03,06,14,58,998.07
2016,03,06,14,59,998.07
2016,03,06,15,00,998.04
2016,03,06,15,01,998.00
2016,03,06,15,02,997.97
2016,03,06,15,03,997.97
2016,03,06,15,04,997.97
2016,03,06,15,05,997.94
2016,03,06,15,06,997.97
2016,03,06,15,07,997.97
2016,03,06,15,08,997.97
2016,03,06,15,09,998.00
2016,03,06,15,10,998.04
2016,03,06,15,11,998.07
2016,03,06,15,12,998.04
2016,03,06,15,13,998.07
2016,03,06,15,14,998.07
2016,03,06,15,15,998.14
2016,03,06,15,16,998.17
2016,03,06,15,17,998.14
2016,03,06,15,18,998.21
2016,03,06,15,19,998.21
2016,03,06,15,20,998.34
2016,03,06,15,21,998.24
2016,03,06,15,22,998.34
2016,03,06,15,23,998.38
2016,03,06,15,24,998.38
2016,03,06,15,25,998.41
2016,03,06,15,26,998.41
2016,03,06,15,27,998.38
2016,03,06,15,28,998.38
2016,03,06,15,29,998.44
2016,03,06,15,30,998.48
2016,03,06,15,31,998.51
2016,03,06,15,32,998.54
2016,03,06,15,33,998.58
2016,03,06,15,34,998.65
2016,03,06,15,35,998.65
2016,03,06,15,36,998.65
2016,03,06,15,37,998.61
2016,03,06,15,38,998.61
2016,03,06,15,39,998.54
2016,03,06,15,40,998.51
2016,03,06,15,41,998.48
2016,03,06,15,42,998.48
2016,03,06,15,43,998.51
2016,03,06,15,44,998.51
2016,03,06,15,45,998.51
2016,03,06,15,46,998.58
2016,03,06,15,47,998.61
2016,03,06,15,48,998.58
2016,03,06,15,49,998.61
2016,03,06,15,50,998.58
2016,03,06,15,51,998.61
2016,03,06,15,52,998.68
2016,03,06,15,53,998.68
2016,03,06,15,54,998.65
2016,03,06,15,55,998.61
2016,03,06,15,56,998.68
2016,03,06,15,57,998.68
2016,03,06,15,58,998.65
2016,03,06,15,59,998.68
2016,03,06,16,00,998.68
2016,03,06,16,01,998.61
2016,03,06,16,02,998.65
2016,03,06,16,03,998.65
2016,03,06,16,04,998.68
2016,03,06,16,05,998.68
2016,03,06,16,06,998.68
2016,03,06,16,07,998.68
2016,03,06,16,08,998.65
2016,03,06,16,09,998.68
2016,03,06,16,10,998.65
2016,03,06,16,11,998.65
2016,03,06,16,12,998.65
2016,03,06,16,13,998.61
2016,03,06,16,14,998.58
2016,03,06,16,15,998.65
2016,03,06,16,16,998.68
2016,03,06,16,17,998.65
2016,03,06,16,18,998.68
2016,03,06,16,19,998.65
2016,03,06,16,20,998.68
2016,03,06,16,21,998.71
2016,03,06,16,22,998.71
2016,03,06,16,23,998.75
2016,03,06,16,24,998.68
2016,03,06,16,25,998.75
2016,03,06,16,26,998.75
2016,03,06,16,27,998.71
2016,03,06,16,28,998.68
2016,03,06,16,29,998.65
2016,03,06,16,30,998.65
2016,03,06,16,31,998.65
2016,03,06,16,32,998.61
2016,03,06,16,33,998.65
2016,03,06,16,34,998.61
2016,03,06,16,35,998.65
2016,03,06,16,36,998.61